Time,TemperatureF,DewpointF,PressureIn,WindDirection,WindDirectionDegrees,WindSpeedMPH,WindSpeedGustMPH,Humidity,HourlyPrecipIn,Conditions,Clouds,dailyrainin,SoftwareType,DateUTC
2013-05-07 00:03:00,57.9,35.5,29.80,SE,135,3.4,4.7,43,0.00,,,0.00,LWC V1.12 B30,2013-05-07 07:03:00,
2013-05-07 00:08:00,57.7,35.3,29.80,SE,135,5.1,5.4,43,0.00,,,0.00,LWC V1.12 B30,2013-05-07 07:08:00,
2013-05-07 00:13:00,57.4,35.5,29.80,SE,135,4.2,4.7,44,0.00,,,0.00,LWC V1.12 B30,2013-05-07 07:13:00,
2013-05-07 00:18:00,57.4,35.5,29.81,SE,135,3.1,3.6,44,0.00,,,0.00,LWC V1.12 B30,2013-05-07 07:18:00,
2013-05-07 00:23:00,57.0,35.2,29.81,SE,135,2.2,2.2,44,0.00,,,0.00,LWC V1.12 B30,2013-05-07 07:23:00,
2013-05-07 00:28:00,57.0,35.8,29.81,SE,135,2.0,2.5,45,0.00,,,0.00,LWC V1.12 B30,2013-05-07 07:28:00,
2013-05-07 00:33:00,56.8,35.6,29.81,South,180,0.0,0.0,45,0.00,,,0.00,LWC V1.12 B30,2013-05-07 07:33:00,
2013-05-07 00:38:00,56.5,35.3,29.81,ESE,112,2.9,2.9,45,0.00,,,0.00,LWC V1.12 B30,2013-05-07 07:38:00,
2013-05-07 00:43:00,56.5,35.8,29.81,SE,135,1.8,3.6,46,0.00,,,0.00,LWC V1.12 B30,2013-05-07 07:43:00,
2013-05-07 00:48:00,56.1,36.0,29.81,SSE,157,2.9,4.2,47,0.00,,,0.00,LWC V1.12 B30,2013-05-07 07:48:00,
2013-05-07 00:53:00,55.9,35.9,29.81,SE,135,3.1,3.1,47,0.00,,,0.00,LWC V1.12 B30,2013-05-07 07:53:00,
2013-05-07 00:58:00,55.8,35.7,29.81,SE,135,2.9,2.9,47,0.00,,,0.00,LWC V1.12 B30,2013-05-07 07:58:00,
2013-05-07 01:03:00,55.4,35.4,29.81,SE,135,2.7,2.7,47,0.00,,,0.00,LWC V1.12 B30,2013-05-07 08:03:00,
2013-05-07 01:08:00,55.2,35.2,29.81,SSE,157,2.2,2.7,47,0.00,,,0.00,LWC V1.12 B30,2013-05-07 08:08:00,
2013-05-07 01:13:00,55.2,35.2,29.81,SE,135,1.6,2.0,47,0.00,,,0.00,LWC V1.12 B30,2013-05-07 08:13:00,
2013-05-07 01:18:00,55.0,35.0,29.81,SE,135,2.5,3.4,47,0.00,,,0.00,LWC V1.12 B30,2013-05-07 08:18:00,
2013-05-07 01:23:00,54.7,34.7,29.81,SSE,157,3.6,3.8,47,0.00,,,0.00,LWC V1.12 B30,2013-05-07 08:23:00,
2013-05-07 01:28:00,54.5,35.1,29.81,SE,135,3.6,4.2,48,0.00,,,0.00,LWC V1.12 B30,2013-05-07 08:28:00,
2013-05-07 01:33:00,54.3,35.0,29.81,SE,135,2.9,3.8,48,0.00,,,0.00,LWC V1.12 B30,2013-05-07 08:33:00,
2013-05-07 01:39:00,54.3,35.0,29.81,SE,135,0.0,2.9,48,0.00,,,0.00,LWC V1.12 B30,2013-05-07 08:39:00,
2013-05-07 01:44:00,54.1,34.8,29.81,SE,135,0.9,1.6,48,0.00,,,0.00,LWC V1.12 B30,2013-05-07 08:44:00,
2013-05-07 01:49:00,54.0,34.6,29.81,SSE,157,0.0,3.1,48,0.00,,,0.00,LWC V1.12 B30,2013-05-07 08:49:00,
2013-05-07 01:55:00,53.8,34.5,29.81,SE,135,0.0,2.7,49,0.00,,,0.00,LWC V1.12 B30,2013-05-07 08:55:00,
2013-05-07 02:01:00,53.6,35.0,29.82,SE,135,0.9,1.8,49,0.00,,,0.00,LWC V1.12 B30,2013-05-07 09:01:00,
2013-05-07 02:06:00,53.4,34.7,29.82,SE,135,0.0,0.0,49,0.00,,,0.00,LWC V1.12 B30,2013-05-07 09:06:00,
2013-05-07 02:11:00,53.2,34.5,29.82,SE,135,0.0,0.0,49,0.00,,,0.00,LWC V1.12 B30,2013-05-07 09:11:00,
2013-05-07 02:16:00,53.2,34.5,29.82,SE,135,0.0,0.0,49,0.00,,,0.00,LWC V1.12 B30,2013-05-07 09:16:00,
2013-05-07 02:21:00,52.9,34.2,29.81,SE,135,0.0,0.0,49,0.00,,,0.00,LWC V1.12 B30,2013-05-07 09:21:00,
2013-05-07 02:26:00,52.9,34.2,29.82,SE,135,0.0,0.0,49,0.00,,,0.00,LWC V1.12 B30,2013-05-07 09:26:00,
2013-05-07 02:31:00,52.5,34.6,29.82,SE,135,0.0,0.0,50,0.00,,,0.00,LWC V1.12 B30,2013-05-07 09:31:00,
2013-05-07 02:36:00,52.3,34.3,29.82,SE,135,0.0,0.0,50,0.00,,,0.00,LWC V1.12 B30,2013-05-07 09:36:00,
2013-05-07 02:41:00,52.3,34.3,29.82,SE,135,3.1,3.4,50,0.00,,,0.00,LWC V1.12 B30,2013-05-07 09:41:00,
2013-05-07 02:46:00,52.2,34.1,29.82,SE,135,2.0,2.5,50,0.00,,,0.00,LWC V1.12 B30,2013-05-07 09:46:00,
2013-05-07 02:51:00,52.0,34.0,29.82,SE,135,1.6,2.9,50,0.00,,,0.00,LWC V1.12 B30,2013-05-07 09:51:00,
2013-05-07 02:56:00,51.8,34.7,29.81,SSE,157,1.3,3.1,52,0.00,,,0.00,LWC V1.12 B30,2013-05-07 09:56:00,
2013-05-07 03:01:00,51.6,34.5,29.82,SE,135,0.0,0.0,52,0.00,,,0.00,LWC V1.12 B30,2013-05-07 10:01:00,
2013-05-07 03:06:00,51.6,34.5,29.82,SE,135,0.0,0.0,52,0.00,,,0.00,LWC V1.12 B30,2013-05-07 10:06:00,
2013-05-07 03:11:00,51.6,34.5,29.83,SE,135,0.0,0.0,52,0.00,,,0.00,LWC V1.12 B30,2013-05-07 10:11:00,
2013-05-07 03:16:00,51.6,35.0,29.83,SE,135,0.0,0.0,53,0.00,,,0.00,LWC V1.12 B30,2013-05-07 10:16:00,
2013-05-07 03:21:00,51.4,34.8,29.83,SE,135,0.0,0.0,53,0.00,,,0.00,LWC V1.12 B30,2013-05-07 10:21:00,
2013-05-07 03:26:00,51.4,34.8,29.83,SE,135,0.0,0.0,53,0.00,,,0.00,LWC V1.12 B30,2013-05-07 10:26:00,
2013-05-07 03:31:00,51.1,35.0,29.83,SSE,157,0.0,0.0,54,0.00,,,0.00,LWC V1.12 B30,2013-05-07 10:31:00,
2013-05-07 03:36:00,50.9,34.8,29.83,SE,135,0.0,2.2,54,0.00,,,0.00,LWC V1.12 B30,2013-05-07 10:36:00,
2013-05-07 03:41:00,50.7,34.6,29.83,ESE,112,0.0,0.0,54,0.00,,,0.00,LWC V1.12 B30,2013-05-07 10:41:00,
2013-05-07 03:46:00,50.7,35.1,29.83,SE,135,0.0,2.0,55,0.00,,,0.00,LWC V1.12 B30,2013-05-07 10:46:00,
2013-05-07 03:51:00,50.4,34.8,29.83,SE,135,0.0,0.0,55,0.00,,,0.00,LWC V1.12 B30,2013-05-07 10:51:00,
2013-05-07 03:56:00,50.2,34.6,29.83,SE,135,0.0,0.0,55,0.00,,,0.00,LWC V1.12 B30,2013-05-07 10:56:00,
2013-05-07 04:02:00,49.8,34.7,29.83,SE,135,3.6,3.6,56,0.00,,,0.00,LWC V1.12 B30,2013-05-07 11:02:00,
2013-05-07 04:07:00,49.8,34.7,29.82,SE,135,1.6,2.9,56,0.00,,,0.00,LWC V1.12 B30,2013-05-07 11:07:00,
2013-05-07 04:12:00,49.6,35.0,29.82,SE,135,1.8,3.4,57,0.00,,,0.00,LWC V1.12 B30,2013-05-07 11:12:00,
2013-05-07 04:17:00,49.3,35.1,29.83,SE,135,2.7,3.4,58,0.00,,,0.00,LWC V1.12 B30,2013-05-07 11:17:00,
2013-05-07 04:22:00,49.3,35.1,29.83,SE,135,2.2,2.5,58,0.00,,,0.00,LWC V1.12 B30,2013-05-07 11:22:00,
2013-05-07 04:27:00,49.1,35.0,29.83,SE,135,0.0,1.3,58,0.00,,,0.00,LWC V1.12 B30,2013-05-07 11:27:00,
2013-05-07 04:33:00,48.9,34.8,29.82,SE,135,0.0,0.0,58,0.00,,,0.00,LWC V1.12 B30,2013-05-07 11:33:00,
2013-05-07 04:38:00,48.7,34.6,29.82,SE,135,0.0,0.0,58,0.00,,,0.00,LWC V1.12 B30,2013-05-07 11:38:00,
2013-05-07 04:43:00,48.7,34.6,29.83,SE,135,0.0,0.0,58,0.00,,,0.00,LWC V1.12 B30,2013-05-07 11:43:00,
2013-05-07 04:48:00,48.6,34.4,29.82,SE,135,0.0,0.0,58,0.00,,,0.00,LWC V1.12 B30,2013-05-07 11:48:00,
2013-05-07 04:54:00,48.4,34.3,29.83,SE,135,0.0,0.0,58,0.00,,,0.00,LWC V1.12 B30,2013-05-07 11:54:00,
2013-05-07 04:59:00,48.4,34.3,29.83,SE,135,0.0,0.0,58,0.00,,,0.00,LWC V1.12 B30,2013-05-07 11:59:00,
2013-05-07 05:04:00,48.2,34.6,29.83,SE,135,0.0,0.0,59,0.00,,,0.00,LWC V1.12 B30,2013-05-07 12:04:00,
2013-05-07 05:09:00,48.0,34.4,29.83,SE,135,0.0,0.0,59,0.00,,,0.00,LWC V1.12 B30,2013-05-07 12:09:00,
2013-05-07 05:14:00,48.0,34.4,29.83,SE,135,0.0,0.0,59,0.00,,,0.00,LWC V1.12 B30,2013-05-07 12:14:00,
2013-05-07 05:19:00,48.0,35.3,29.83,SE,135,0.0,0.0,61,0.00,,,0.00,LWC V1.12 B30,2013-05-07 12:19:00,
2013-05-07 05:24:00,48.0,34.9,29.83,SE,135,0.0,0.0,60,0.00,,,0.00,LWC V1.12 B30,2013-05-07 12:24:00,
2013-05-07 05:29:00,48.0,35.3,29.83,SE,135,0.0,0.0,61,0.00,,,0.00,LWC V1.12 B30,2013-05-07 12:29:00,
2013-05-07 05:34:00,47.8,35.1,29.83,SE,135,0.0,0.0,61,0.00,,,0.00,LWC V1.12 B30,2013-05-07 12:34:00,
2013-05-07 05:39:00,47.8,35.1,29.83,SSE,157,0.0,0.0,61,0.00,,,0.00,LWC V1.12 B30,2013-05-07 12:39:00,
2013-05-07 05:44:00,47.8,35.1,29.83,SE,135,1.1,2.5,61,0.00,,,0.00,LWC V1.12 B30,2013-05-07 12:44:00,
2013-05-07 05:49:00,47.8,35.5,29.83,ESE,112,0.0,1.3,62,0.00,,,0.00,LWC V1.12 B30,2013-05-07 12:49:00,
2013-05-07 05:54:00,47.8,35.5,29.83,ESE,112,0.0,0.0,62,0.00,,,0.00,LWC V1.12 B30,2013-05-07 12:54:00,
2013-05-07 05:59:00,47.8,35.8,29.83,ESE,112,0.0,0.0,63,0.00,,,0.00,LWC V1.12 B30,2013-05-07 12:59:00,
2013-05-07 06:04:00,48.0,36.0,29.83,ESE,112,0.0,0.0,63,0.00,,,0.00,LWC V1.12 B30,2013-05-07 13:04:00,
2013-05-07 06:09:00,48.0,36.0,29.83,SE,135,0.0,0.0,63,0.00,,,0.00,LWC V1.12 B30,2013-05-07 13:09:00,
2013-05-07 06:14:00,48.0,36.0,29.83,SE,135,0.0,0.0,63,0.00,,,0.00,LWC V1.12 B30,2013-05-07 13:14:00,
2013-05-07 06:19:00,48.2,36.2,29.84,SE,135,0.0,0.0,63,0.00,,,0.00,LWC V1.12 B30,2013-05-07 13:19:00,
2013-05-07 06:24:00,48.4,36.4,29.84,ESE,112,0.0,0.0,63,0.00,,,0.00,LWC V1.12 B30,2013-05-07 13:24:00,
2013-05-07 06:29:00,48.6,36.9,29.84,SE,135,0.0,0.0,64,0.00,,,0.00,LWC V1.12 B30,2013-05-07 13:29:00,
2013-05-07 06:34:00,48.9,37.1,29.84,SE,135,0.0,0.0,64,0.00,,,0.00,LWC V1.12 B30,2013-05-07 13:34:00,
2013-05-07 06:39:00,49.1,37.4,29.84,East,90,0.0,0.0,64,0.00,,,0.00,LWC V1.12 B30,2013-05-07 13:39:00,
2013-05-07 06:44:00,49.3,38.0,29.85,North,0,0.0,14.1,65,0.00,,,0.00,LWC V1.12 B30,2013-05-07 13:44:00,
2013-05-07 06:49:00,49.8,38.5,29.85,North,0,0.0,0.0,65,0.00,,,0.00,LWC V1.12 B30,2013-05-07 13:49:00,
2013-05-07 06:54:00,50.2,39.2,29.84,NNW,337,0.0,0.0,66,0.00,,,0.00,LWC V1.12 B30,2013-05-07 13:54:00,
2013-05-07 07:01:00,50.5,39.2,29.85,NNW,337,0.0,1.1,65,0.00,,,0.00,LWC V1.12 B30,2013-05-07 14:01:00,
2013-05-07 07:06:00,50.9,39.9,29.85,NW,315,0.0,0.0,66,0.00,,,0.00,LWC V1.12 B30,2013-05-07 14:06:00,
2013-05-07 07:11:00,51.4,40.0,29.86,NW,315,0.0,0.0,65,0.00,,,0.00,LWC V1.12 B30,2013-05-07 14:11:00,
2013-05-07 07:16:00,52.0,40.5,29.86,NW,315,0.0,0.0,65,0.00,,,0.00,LWC V1.12 B30,2013-05-07 14:16:00,
2013-05-07 07:21:00,52.5,40.6,29.86,NW,315,0.0,0.0,64,0.00,,,0.00,LWC V1.12 B30,2013-05-07 14:21:00,
2013-05-07 07:26:00,53.2,40.9,29.85,North,0,1.6,4.0,63,0.00,,,0.00,LWC V1.12 B30,2013-05-07 14:26:00,
2013-05-07 07:31:00,53.8,41.1,29.86,NNE,22,3.6,3.6,62,0.00,,,0.00,LWC V1.12 B30,2013-05-07 14:31:00,
2013-05-07 07:36:00,54.5,40.9,29.85,NE,45,0.0,4.0,60,0.00,,,0.00,LWC V1.12 B30,2013-05-07 14:36:00,
2013-05-07 07:41:00,55.2,41.1,29.85,North,0,0.0,0.0,59,0.00,,,0.00,LWC V1.12 B30,2013-05-07 14:41:00,
2013-05-07 07:46:00,56.3,41.2,29.85,NNE,22,2.7,5.4,56,0.00,,,0.00,LWC V1.12 B30,2013-05-07 14:46:00,
2013-05-07 07:51:00,57.4,40.9,29.86,SE,135,2.2,4.0,54,0.00,,,0.00,LWC V1.12 B30,2013-05-07 14:51:00,
2013-05-07 07:57:00,58.3,40.7,29.85,North,0,5.8,5.8,52,0.00,,,0.00,LWC V1.12 B30,2013-05-07 14:57:00,
2013-05-07 08:02:00,59.4,40.8,29.85,North,0,2.0,6.5,50,0.00,,,0.00,LWC V1.12 B30,2013-05-07 15:02:00,
2013-05-07 08:07:00,60.1,41.4,29.86,North,0,0.0,3.4,50,0.00,,,0.00,LWC V1.12 B30,2013-05-07 15:07:00,
2013-05-07 08:12:00,61.0,41.1,29.86,NNW,337,2.9,2.9,48,0.00,,,0.00,LWC V1.12 B30,2013-05-07 15:12:00,
2013-05-07 08:17:00,61.3,41.4,29.86,East,90,0.0,3.8,48,0.00,,,0.00,LWC V1.12 B30,2013-05-07 15:17:00,
2013-05-07 08:22:00,61.9,41.3,29.86,NE,45,0.0,0.0,47,0.00,,,0.00,LWC V1.12 B30,2013-05-07 15:22:00,
2013-05-07 08:27:00,62.4,41.2,29.86,NE,45,2.2,4.7,46,0.00,,,0.00,LWC V1.12 B30,2013-05-07 15:27:00,
2013-05-07 08:32:00,63.1,42.5,29.86,NNW,337,7.4,7.4,47,0.00,,,0.00,LWC V1.12 B30,2013-05-07 15:32:00,
2013-05-07 08:37:00,63.3,42.6,29.86,NNW,337,0.0,0.0,47,0.00,,,0.00,LWC V1.12 B30,2013-05-07 15:37:00,
2013-05-07 08:42:00,63.9,42.5,29.86,North,0,0.0,2.2,46,0.00,,,0.00,LWC V1.12 B30,2013-05-07 15:42:00,
2013-05-07 08:47:00,64.2,42.9,29.86,NNW,337,0.0,1.6,46,0.00,,,0.00,LWC V1.12 B30,2013-05-07 15:47:00,
2013-05-07 08:52:00,64.8,42.8,29.86,NNE,22,3.6,6.0,45,0.00,,,0.00,LWC V1.12 B30,2013-05-07 15:52:00,
2013-05-07 08:58:00,65.1,42.5,29.86,North,0,1.6,7.4,44,0.00,,,0.00,LWC V1.12 B30,2013-05-07 15:58:00,
2013-05-07 09:03:00,65.3,43.3,29.86,North,0,7.4,7.4,45,0.00,,,0.00,LWC V1.12 B30,2013-05-07 16:03:00,
2013-05-07 09:08:00,65.8,43.2,29.86,NNW,337,6.3,6.7,44,0.00,,,0.00,LWC V1.12 B30,2013-05-07 16:08:00,
2013-05-07 09:13:00,66.0,43.4,29.86,NNW,337,0.0,1.8,44,0.00,,,0.00,LWC V1.12 B30,2013-05-07 16:13:00,
2013-05-07 09:18:00,66.4,43.1,29.86,NW,315,5.6,6.7,43,0.00,,,0.00,LWC V1.12 B30,2013-05-07 16:18:00,
2013-05-07 09:23:00,66.7,43.4,29.86,North,0,1.8,5.1,43,0.00,,,0.00,LWC V1.12 B30,2013-05-07 16:23:00,
2013-05-07 09:28:00,67.3,43.3,29.86,NW,315,0.0,6.0,42,0.00,,,0.00,LWC V1.12 B30,2013-05-07 16:28:00,
2013-05-07 09:33:00,67.8,44.4,29.86,ENE,67,0.0,1.3,43,0.00,,,0.00,LWC V1.12 B30,2013-05-07 16:33:00,
2013-05-07 09:38:00,68.5,44.5,29.87,NW,315,0.0,8.5,42,0.00,,,0.00,LWC V1.12 B30,2013-05-07 16:38:00,
2013-05-07 09:43:00,69.3,44.5,29.86,NE,45,0.0,3.6,41,0.00,,,0.00,LWC V1.12 B30,2013-05-07 16:43:00,
2013-05-07 09:48:00,70.0,45.2,29.86,North,0,3.8,4.7,41,0.00,,,0.00,LWC V1.12 B30,2013-05-07 16:48:00,
2013-05-07 09:53:00,70.5,45.1,29.86,NNW,337,0.0,0.0,40,0.00,,,0.00,LWC V1.12 B30,2013-05-07 16:53:00,
2013-05-07 09:58:00,70.9,44.7,29.86,ESE,112,0.0,1.6,39,0.00,,,0.00,LWC V1.12 B30,2013-05-07 16:58:00,
2013-05-07 10:03:00,71.4,45.1,29.87,North,0,5.1,5.1,39,0.00,,,0.00,LWC V1.12 B30,2013-05-07 17:03:00,
2013-05-07 10:08:00,72.0,44.1,29.87,NW,315,0.0,4.0,37,0.00,,,0.00,LWC V1.12 B30,2013-05-07 17:08:00,
2013-05-07 10:13:00,72.5,43.9,29.86,SE,135,0.0,4.0,36,0.00,,,0.00,LWC V1.12 B30,2013-05-07 17:13:00,
2013-05-07 10:18:00,73.0,45.1,29.86,ENE,67,0.0,0.9,37,0.00,,,0.00,LWC V1.12 B30,2013-05-07 17:18:00,
2013-05-07 10:23:00,73.4,44.6,29.86,ENE,67,5.4,10.7,36,0.00,,,0.00,LWC V1.12 B30,2013-05-07 17:23:00,
2013-05-07 10:28:00,74.1,44.5,29.86,SE,135,4.0,4.0,35,0.00,,,0.00,LWC V1.12 B30,2013-05-07 17:28:00,
2013-05-07 10:34:00,75.0,44.6,29.86,ESE,112,0.0,2.5,34,0.00,,,0.00,LWC V1.12 B30,2013-05-07 17:34:00,
2013-05-07 10:40:00,75.7,44.5,29.87,WSW,247,0.0,4.5,33,0.00,,,0.00,LWC V1.12 B30,2013-05-07 17:40:00,
2013-05-07 10:45:00,75.9,43.9,29.87,NW,315,3.4,5.6,32,0.00,,,0.00,LWC V1.12 B30,2013-05-07 17:45:00,
2013-05-07 10:50:00,75.9,43.9,29.86,North,0,7.4,7.4,32,0.00,,,0.00,LWC V1.12 B30,2013-05-07 17:50:00,
2013-05-07 10:55:00,76.1,43.3,29.87,SSE,157,0.0,0.0,31,0.00,,,0.00,LWC V1.12 B30,2013-05-07 17:55:00,
2013-05-07 11:00:00,76.8,43.9,29.86,NNW,337,0.0,3.6,31,0.00,,,0.00,LWC V1.12 B30,2013-05-07 18:00:00,
2013-05-07 11:05:00,77.5,43.8,29.87,West,270,0.0,0.0,30,0.00,,,0.00,LWC V1.12 B30,2013-05-07 18:05:00,
2013-05-07 11:10:00,78.1,44.2,29.87,NNW,337,2.7,3.8,30,0.00,,,0.00,LWC V1.12 B30,2013-05-07 18:10:00,
2013-05-07 11:15:00,78.1,44.2,29.87,NNW,337,0.0,1.6,30,0.00,,,0.00,LWC V1.12 B30,2013-05-07 18:15:00,
2013-05-07 11:20:00,78.6,44.6,29.87,ENE,67,1.3,3.8,30,0.00,,,0.00,LWC V1.12 B30,2013-05-07 18:20:00,
2013-05-07 11:25:00,79.5,44.4,29.87,ESE,112,3.8,6.3,29,0.00,,,0.00,LWC V1.12 B30,2013-05-07 18:25:00,
2013-05-07 11:30:00,80.2,45.0,29.87,NE,45,0.0,2.2,29,0.00,,,0.00,LWC V1.12 B30,2013-05-07 18:30:00,
2013-05-07 11:35:00,81.1,45.8,29.87,East,90,0.0,2.5,29,0.00,,,0.00,LWC V1.12 B30,2013-05-07 18:35:00,
2013-05-07 11:40:00,81.7,44.1,29.87,North,0,4.2,6.7,27,0.00,,,0.00,LWC V1.12 B30,2013-05-07 18:40:00,
2013-05-07 11:45:00,81.3,43.8,29.87,West,270,0.0,1.3,27,0.00,,,0.00,LWC V1.12 B30,2013-05-07 18:45:00,
2013-05-07 11:50:00,80.6,43.3,29.87,North,0,0.0,2.5,27,0.00,,,0.00,LWC V1.12 B30,2013-05-07 18:50:00,
2013-05-07 11:55:00,80.2,42.9,29.87,NNE,22,2.5,3.6,27,0.00,,,0.00,LWC V1.12 B30,2013-05-07 18:55:00,
2013-05-07 12:00:00,80.4,43.1,29.87,West,270,0.0,0.0,27,0.00,,,0.00,LWC V1.12 B30,2013-05-07 19:00:00,
2013-05-07 12:05:00,81.1,43.7,29.87,WNW,292,0.0,0.0,27,0.00,,,0.00,LWC V1.12 B30,2013-05-07 19:05:00,
2013-05-07 12:10:00,81.9,43.4,29.87,NNE,22,0.0,1.3,26,0.00,,,0.00,LWC V1.12 B30,2013-05-07 19:10:00,
2013-05-07 12:16:00,82.6,41.7,29.87,SSW,202,0.0,1.1,24,0.00,,,0.00,LWC V1.12 B30,2013-05-07 19:16:00,
2013-05-07 12:21:00,82.6,43.8,29.87,SE,135,0.0,0.0,26,0.00,,,0.00,LWC V1.12 B30,2013-05-07 19:21:00,
2013-05-07 12:26:00,83.3,43.4,29.87,North,0,3.6,6.7,25,0.00,,,0.00,LWC V1.12 B30,2013-05-07 19:26:00,
2013-05-07 12:31:00,83.3,43.4,29.87,North,0,3.6,3.6,25,0.00,,,0.00,LWC V1.12 B30,2013-05-07 19:31:00,
2013-05-07 12:36:00,83.1,41.1,29.87,NNW,337,0.7,4.0,23,0.00,,,0.00,LWC V1.12 B30,2013-05-07 19:36:00,
2013-05-07 12:41:00,82.9,43.1,29.86,NNW,337,0.0,0.0,25,0.00,,,0.00,LWC V1.12 B30,2013-05-07 19:41:00,
2013-05-07 12:46:00,83.3,41.3,29.87,NW,315,2.7,2.9,23,0.00,,,0.00,LWC V1.12 B30,2013-05-07 19:46:00,
2013-05-07 12:51:00,83.1,40.1,29.86,North,0,0.0,0.0,23,0.00,,,0.00,LWC V1.12 B30,2013-05-07 19:51:00,
2013-05-07 12:56:00,83.1,40.1,29.87,SE,135,0.0,2.2,22,0.00,,,0.00,LWC V1.12 B30,2013-05-07 19:56:00,
2013-05-07 13:01:00,83.5,41.4,29.87,NW,315,0.0,0.0,23,0.00,,,0.00,LWC V1.12 B30,2013-05-07 20:01:00,
2013-05-07 13:06:00,84.0,40.8,29.87,West,270,0.0,3.8,22,0.00,,,0.00,LWC V1.12 B30,2013-05-07 20:06:00,
2013-05-07 13:11:00,84.0,40.8,29.87,SSW,202,28.4,28.4,22,0.00,,,0.00,LWC V1.12 B30,2013-05-07 20:11:00,
2013-05-07 13:16:00,84.6,42.5,29.86,WSW,247,3.6,3.6,23,0.00,,,0.00,LWC V1.12 B30,2013-05-07 20:16:00,
2013-05-07 13:22:00,85.1,41.7,29.87,NNW,337,1.3,4.0,22,0.00,,,0.00,LWC V1.12 B30,2013-05-07 20:22:00,
2013-05-07 13:27:00,85.6,42.1,29.87,ESE,112,0.0,2.9,22,0.00,,,0.00,LWC V1.12 B30,2013-05-07 20:27:00,
2013-05-07 13:32:00,85.8,41.2,29.87,SW,225,2.5,4.0,21,0.00,,,0.00,LWC V1.12 B30,2013-05-07 20:32:00,
2013-05-07 13:37:00,86.4,41.7,29.87,SSE,157,0.0,4.0,21,0.00,,,0.00,LWC V1.12 B30,2013-05-07 20:37:00,
2013-05-07 13:42:00,86.9,42.2,29.87,SW,225,2.9,5.4,21,0.00,,,0.00,LWC V1.12 B30,2013-05-07 20:42:00,
2013-05-07 13:47:00,87.3,43.5,29.87,NW,315,2.9,4.0,22,0.00,,,0.00,LWC V1.12 B30,2013-05-07 20:47:00,
2013-05-07 13:53:00,86.9,42.2,29.87,NNW,337,0.0,6.5,21,0.00,,,0.00,LWC V1.12 B30,2013-05-07 20:53:00,
2013-05-07 13:58:00,86.2,40.4,29.87,NE,45,0.0,4.7,20,0.00,,,0.00,LWC V1.12 B30,2013-05-07 20:58:00,
2013-05-07 14:03:00,85.8,40.1,29.87,NW,315,0.0,5.6,20,0.00,,,0.00,LWC V1.12 B30,2013-05-07 21:03:00,
2013-05-07 14:08:00,85.3,40.8,29.87,West,270,0.9,1.6,21,0.00,,,0.00,LWC V1.12 B30,2013-05-07 21:08:00,
2013-05-07 14:13:00,85.1,40.6,29.86,SSW,202,0.0,0.0,21,0.00,,,0.00,LWC V1.12 B30,2013-05-07 21:13:00,
2013-05-07 14:18:00,85.6,42.1,29.87,South,180,1.3,1.3,22,0.00,,,0.00,LWC V1.12 B30,2013-05-07 21:18:00,
2013-05-07 14:23:00,86.4,41.7,29.87,NNE,22,2.2,2.2,21,0.00,,,0.00,LWC V1.12 B30,2013-05-07 21:23:00,
2013-05-07 14:28:00,86.9,42.3,29.87,WNW,292,0.0,0.0,21,0.00,,,0.00,LWC V1.12 B30,2013-05-07 21:28:00,
2013-05-07 14:33:00,87.1,41.3,29.86,NNW,337,1.8,1.8,20,0.00,,,0.00,LWC V1.12 B30,2013-05-07 21:33:00,
2013-05-07 14:38:00,86.7,40.9,29.87,NNW,337,4.0,5.6,20,0.00,,,0.00,LWC V1.12 B30,2013-05-07 21:38:00,
2013-05-07 14:43:00,85.8,40.3,29.87,NNW,337,2.2,2.7,20,0.00,,,0.00,LWC V1.12 B30,2013-05-07 21:43:00,
2013-05-07 14:48:00,85.8,40.0,29.87,NNE,22,4.2,4.2,20,0.00,,,0.00,LWC V1.12 B30,2013-05-07 21:48:00,
2013-05-07 14:53:00,86.2,41.5,29.86,North,0,0.0,3.4,21,0.00,,,0.00,LWC V1.12 B30,2013-05-07 21:53:00,
2013-05-07 14:58:00,86.2,41.5,29.87,North,0,1.3,3.6,21,0.00,,,0.00,LWC V1.12 B30,2013-05-07 21:58:00,
2013-05-07 15:03:00,86.2,41.5,29.86,West,270,0.0,0.0,21,0.00,,,0.00,LWC V1.12 B30,2013-05-07 22:03:00,
2013-05-07 15:08:00,86.7,42.0,29.87,NW,315,0.0,0.0,21,0.00,,,0.00,LWC V1.12 B30,2013-05-07 22:08:00,
2013-05-07 15:13:00,87.1,42.3,29.87,North,0,1.3,4.7,21,0.00,,,0.00,LWC V1.12 B30,2013-05-07 22:13:00,
2013-05-07 15:18:00,86.7,42.0,29.87,SE,135,1.3,3.4,21,0.00,,,0.00,LWC V1.12 B30,2013-05-07 22:18:00,
2013-05-07 15:23:00,86.9,41.1,29.86,North,0,4.5,6.7,20,0.00,,,0.00,LWC V1.12 B30,2013-05-07 22:23:00,
2013-05-07 15:29:00,86.7,40.9,29.87,SE,135,0.0,2.5,20,0.00,,,0.00,LWC V1.12 B30,2013-05-07 22:29:00,
2013-05-07 15:34:00,86.7,42.0,29.86,NNW,337,3.8,3.8,21,0.00,,,0.00,LWC V1.12 B30,2013-05-07 22:34:00,
2013-05-07 15:39:00,86.5,42.9,29.87,North,0,4.7,4.7,22,0.00,,,0.00,LWC V1.12 B30,2013-05-07 22:39:00,
2013-05-07 15:44:00,86.2,42.6,29.86,SE,135,4.0,4.0,22,0.00,,,0.00,LWC V1.12 B30,2013-05-07 22:44:00,
2013-05-07 15:49:00,86.4,42.7,29.87,SSE,157,0.0,6.0,22,0.00,,,0.00,LWC V1.12 B30,2013-05-07 22:49:00,
2013-05-07 15:54:00,86.7,43.1,29.86,NNW,337,0.0,2.2,22,0.00,,,0.00,LWC V1.12 B30,2013-05-07 22:54:00,
2013-05-07 15:59:00,86.5,43.1,29.86,WNW,292,0.0,3.6,22,0.00,,,0.00,LWC V1.12 B30,2013-05-07 22:59:00,
2013-05-07 16:05:00,86.2,42.6,29.86,WNW,292,2.9,2.9,22,0.00,,,0.00,LWC V1.12 B30,2013-05-07 23:05:00,
2013-05-07 16:10:00,85.6,42.1,29.86,WNW,292,0.0,4.0,22,0.00,,,0.00,LWC V1.12 B30,2013-05-07 23:10:00,
2013-05-07 16:15:00,85.1,42.8,29.86,NNE,22,0.0,28.4,23,0.00,,,0.00,LWC V1.12 B30,2013-05-07 23:15:00,
2013-05-07 16:20:00,84.7,42.5,29.86,North,0,3.1,5.6,23,0.00,,,0.00,LWC V1.12 B30,2013-05-07 23:20:00,
2013-05-07 16:25:00,84.4,43.2,29.86,NNE,22,2.2,4.0,24,0.00,,,0.00,LWC V1.12 B30,2013-05-07 23:25:00,
2013-05-07 16:30:00,83.8,42.9,29.86,NNE,22,3.1,5.4,24,0.00,,,0.00,LWC V1.12 B30,2013-05-07 23:30:00,
2013-05-07 16:35:00,83.5,42.5,29.86,South,180,2.9,2.9,24,0.00,,,0.00,LWC V1.12 B30,2013-05-07 23:35:00,
2013-05-07 16:40:00,83.3,43.4,29.86,West,270,0.0,0.0,25,0.00,,,0.00,LWC V1.12 B30,2013-05-07 23:40:00,
2013-05-07 16:45:00,83.5,44.6,29.86,NNW,337,3.1,3.4,26,0.00,,,0.00,LWC V1.12 B30,2013-05-07 23:45:00,
2013-05-07 16:50:00,83.1,44.3,29.86,NNE,22,0.0,0.0,26,0.00,,,0.00,LWC V1.12 B30,2013-05-07 23:50:00,
2013-05-07 16:55:00,83.1,44.3,29.86,NW,315,0.0,3.1,26,0.00,,,0.00,LWC V1.12 B30,2013-05-07 23:55:00,
2013-05-07 17:00:00,83.1,44.1,29.86,NW,315,0.0,4.2,26,0.00,,,0.00,LWC V1.12 B30,2013-05-08 00:00:00,
2013-05-07 17:05:00,83.1,44.3,29.86,North,0,0.0,3.8,26,0.00,,,0.00,LWC V1.12 B30,2013-05-08 00:05:00,
2013-05-07 17:10:00,82.9,44.1,29.86,NNW,337,2.2,4.5,26,0.00,,,0.00,LWC V1.12 B30,2013-05-08 00:10:00,
2013-05-07 17:15:00,82.6,43.8,29.86,North,0,5.4,6.0,26,0.00,,,0.00,LWC V1.12 B30,2013-05-08 00:15:00,
2013-05-07 17:20:00,82.6,44.9,29.86,NNW,337,6.5,6.5,27,0.00,,,0.00,LWC V1.12 B30,2013-05-08 00:20:00,
2013-05-07 17:25:00,82.6,43.8,29.86,NNW,337,2.2,5.4,26,0.00,,,0.00,LWC V1.12 B30,2013-05-08 00:25:00,
2013-05-07 17:30:00,82.4,43.7,29.86,NNE,22,2.9,6.7,26,0.00,,,0.00,LWC V1.12 B30,2013-05-08 00:30:00,
2013-05-07 17:35:00,82.6,43.8,29.86,WSW,247,0.0,2.7,26,0.00,,,0.00,LWC V1.12 B30,2013-05-08 00:35:00,
2013-05-07 17:40:00,82.6,43.8,29.86,North,0,3.8,8.5,26,0.00,,,0.00,LWC V1.12 B30,2013-05-08 00:40:00,
2013-05-07 17:45:00,82.8,42.9,29.87,North,0,0.0,28.4,25,0.00,,,0.00,LWC V1.12 B30,2013-05-08 00:45:00,
2013-05-07 17:50:00,82.9,44.1,29.86,NNE,22,2.7,3.8,26,0.00,,,0.00,LWC V1.12 B30,2013-05-08 00:50:00,
2013-05-07 17:55:00,83.1,44.3,29.87,West,270,0.0,4.5,26,0.00,,,0.00,LWC V1.12 B30,2013-05-08 00:55:00,
2013-05-07 18:00:00,83.1,43.2,29.87,NW,315,0.0,2.2,25,0.00,,,0.00,LWC V1.12 B30,2013-05-08 01:00:00,
2013-05-07 18:05:00,83.3,44.4,29.87,NW,315,2.5,6.0,26,0.00,,,0.00,LWC V1.12 B30,2013-05-08 01:05:00,
2013-05-07 18:11:00,83.1,43.2,29.86,North,0,5.1,9.4,25,0.00,,,0.00,LWC V1.12 B30,2013-05-08 01:11:00,
2013-05-07 18:16:00,83.1,43.2,29.86,North,0,0.0,4.7,25,0.00,,,0.00,LWC V1.12 B30,2013-05-08 01:16:00,
2013-05-07 18:21:00,83.1,43.2,29.87,NW,315,0.7,3.6,25,0.00,,,0.00,LWC V1.12 B30,2013-05-08 01:21:00,
2013-05-07 18:26:00,83.1,43.2,29.87,NW,315,0.0,0.0,25,0.00,,,0.00,LWC V1.12 B30,2013-05-08 01:26:00,
2013-05-07 18:31:00,83.1,43.2,29.87,WNW,292,0.0,0.0,25,0.00,,,0.00,LWC V1.12 B30,2013-05-08 01:31:00,
2013-05-07 18:36:00,83.1,43.2,29.87,WNW,292,1.3,2.2,25,0.00,,,0.00,LWC V1.12 B30,2013-05-08 01:36:00,
2013-05-07 18:42:00,83.1,43.2,29.87,NNW,337,0.0,0.0,25,0.00,,,0.00,LWC V1.12 B30,2013-05-08 01:42:00,
2013-05-07 18:47:00,83.1,43.2,29.87,NNW,337,0.0,0.9,25,0.00,,,0.00,LWC V1.12 B30,2013-05-08 01:47:00,
2013-05-07 18:52:00,83.1,43.2,29.87,WNW,292,0.0,0.0,25,0.00,,,0.00,LWC V1.12 B30,2013-05-08 01:52:00,
2013-05-07 18:57:00,83.1,43.2,29.87,NNE,22,1.6,3.6,25,0.00,,,0.00,LWC V1.12 B30,2013-05-08 01:57:00,
2013-05-07 19:02:00,83.1,43.2,29.87,West,270,2.0,28.4,25,0.00,,,0.00,LWC V1.12 B30,2013-05-08 02:02:00,
2013-05-07 19:07:00,82.9,43.1,29.87,WNW,292,0.0,0.0,25,0.00,,,0.00,LWC V1.12 B30,2013-05-08 02:07:00,
2013-05-07 19:12:00,82.9,43.1,29.87,NNW,337,0.0,0.0,25,0.00,,,0.00,LWC V1.12 B30,2013-05-08 02:12:00,
2013-05-07 19:17:00,82.6,43.8,29.87,NE,45,0.0,0.0,26,0.00,,,0.00,LWC V1.12 B30,2013-05-08 02:17:00,
2013-05-07 19:22:00,82.6,43.8,29.88,NNE,22,0.0,0.0,26,0.00,,,0.00,LWC V1.12 B30,2013-05-08 02:22:00,
2013-05-07 19:27:00,82.6,43.8,29.88,North,0,0.0,0.0,26,0.00,,,0.00,LWC V1.12 B30,2013-05-08 02:27:00,
2013-05-07 19:32:00,82.6,43.8,29.88,North,0,0.0,0.0,26,0.00,,,0.00,LWC V1.12 B30,2013-05-08 02:32:00,
2013-05-07 19:37:00,83.3,44.4,29.88,NNE,22,0.0,0.0,26,0.00,,,0.00,LWC V1.12 B30,2013-05-08 02:37:00,
2013-05-07 19:42:00,84.4,44.3,29.88,East,90,0.0,0.0,25,0.00,,,0.00,LWC V1.12 B30,2013-05-08 02:42:00,
2013-05-07 19:47:00,83.7,43.7,29.88,ENE,67,0.0,0.0,25,0.00,,,0.00,LWC V1.12 B30,2013-05-08 02:47:00,
2013-05-07 19:52:00,82.4,41.7,29.88,East,90,0.0,0.0,24,0.00,,,0.00,LWC V1.12 B30,2013-05-08 02:52:00,
2013-05-07 19:57:00,81.3,42.8,29.89,ESE,112,0.0,0.0,26,0.00,,,0.00,LWC V1.12 B30,2013-05-08 02:57:00,
2013-05-07 20:02:00,80.2,41.9,29.89,ESE,112,0.0,0.0,26,0.00,,,0.00,LWC V1.12 B30,2013-05-08 03:02:00,
2013-05-07 20:07:00,79.0,41.8,29.89,SE,135,0.0,1.3,27,0.00,,,0.00,LWC V1.12 B30,2013-05-08 03:07:00,
2013-05-07 20:12:00,77.9,40.9,29.89,SE,135,1.8,1.8,27,0.00,,,0.00,LWC V1.12 B30,2013-05-08 03:12:00,
2013-05-07 20:17:00,77.0,41.3,29.89,SE,135,2.2,2.2,28,0.00,,,0.00,LWC V1.12 B30,2013-05-08 03:17:00,
2013-05-07 20:22:00,76.1,40.5,29.89,SE,135,2.2,2.2,28,0.00,,,0.00,LWC V1.12 B30,2013-05-08 03:22:00,
2013-05-07 20:27:00,75.4,40.8,29.89,SE,135,2.0,2.2,29,0.00,,,0.00,LWC V1.12 B30,2013-05-08 03:27:00,
2013-05-07 20:33:00,74.5,40.0,29.89,SE,135,1.8,2.0,29,0.00,,,0.00,LWC V1.12 B30,2013-05-08 03:33:00,
2013-05-07 20:38:00,73.6,40.3,29.89,SE,135,1.1,2.9,30,0.00,,,0.00,LWC V1.12 B30,2013-05-08 03:38:00,
2013-05-07 20:43:00,73.0,41.3,29.88,SSE,157,2.9,2.9,32,0.00,,,0.00,LWC V1.12 B30,2013-05-08 03:43:00,
2013-05-07 20:48:00,72.1,41.3,29.89,SE,135,3.1,3.4,33,0.00,,,0.00,LWC V1.12 B30,2013-05-08 03:48:00,
2013-05-07 20:53:00,71.4,41.5,29.89,SE,135,2.2,3.6,34,0.00,,,0.00,LWC V1.12 B30,2013-05-08 03:53:00,
2013-05-07 20:58:00,70.9,41.0,29.89,SSE,157,2.2,3.1,34,0.00,,,0.00,LWC V1.12 B30,2013-05-08 03:58:00,
2013-05-07 21:01:00,70.3,41.2,29.89,SE,135,2.7,2.9,35,0.00,,,0.00,LWC V1.12 B30,2013-05-08 04:01:00,
2013-05-07 21:02:00,70.3,41.2,29.89,SSE,157,2.9,3.6,35,0.00,,,0.00,LWC V1.12 B30,2013-05-08 04:02:00,
2013-05-07 21:05:00,70.2,41.8,29.89,SSE,157,2.0,3.1,36,0.00,,,0.00,LWC V1.12 B30,2013-05-08 04:05:00,
2013-05-07 21:06:00,70.0,41.6,29.89,SSE,157,3.6,4.7,36,0.00,,,0.00,LWC V1.12 B30,2013-05-08 04:06:00,
2013-05-07 21:11:00,69.6,41.3,29.89,SSE,157,2.7,3.6,36,0.00,,,0.00,LWC V1.12 B30,2013-05-08 04:11:00,
2013-05-07 21:16:00,69.1,40.8,29.89,SSE,157,2.2,3.6,36,0.00,,,0.00,LWC V1.12 B30,2013-05-08 04:16:00,
2013-05-07 21:22:00,68.7,41.2,29.89,SE,135,3.4,5.6,37,0.00,,,0.00,LWC V1.12 B30,2013-05-08 04:22:00,
2013-05-07 21:27:00,68.5,41.1,29.89,SE,135,3.8,4.9,37,0.00,,,0.00,LWC V1.12 B30,2013-05-08 04:27:00,
2013-05-07 21:32:00,68.5,41.1,29.89,SSE,157,2.9,4.0,37,0.00,,,0.00,LWC V1.12 B30,2013-05-08 04:32:00,
2013-05-07 21:37:00,68.2,40.7,29.88,SSE,157,3.1,3.1,37,0.00,,,0.00,LWC V1.12 B30,2013-05-08 04:37:00,
2013-05-07 21:42:00,68.2,40.7,29.89,SE,135,0.0,2.2,37,0.00,,,0.00,LWC V1.12 B30,2013-05-08 04:42:00,
2013-05-07 21:47:00,67.8,40.4,29.89,ESE,112,0.0,0.0,37,0.00,,,0.00,LWC V1.12 B30,2013-05-08 04:47:00,
2013-05-07 21:52:00,67.8,40.4,29.89,SE,135,0.0,0.0,37,0.00,,,0.00,LWC V1.12 B30,2013-05-08 04:52:00,
2013-05-07 21:57:00,67.8,40.4,29.89,SE,135,0.0,0.0,37,0.00,,,0.00,LWC V1.12 B30,2013-05-08 04:57:00,
2013-05-07 22:02:00,67.8,40.4,29.90,ESE,112,0.0,0.0,37,0.00,,,0.00,LWC V1.12 B30,2013-05-08 05:02:00,
2013-05-07 22:07:00,67.8,40.4,29.90,SE,135,0.0,0.0,37,0.00,,,0.00,LWC V1.12 B30,2013-05-08 05:07:00,
2013-05-07 22:12:00,67.8,40.4,29.90,ESE,112,0.0,0.0,37,0.00,,,0.00,LWC V1.12 B30,2013-05-08 05:12:00,
2013-05-07 22:17:00,68.0,39.8,29.90,ESE,112,0.0,0.0,36,0.00,,,0.00,LWC V1.12 B30,2013-05-08 05:17:00,
2013-05-07 22:22:00,68.2,40.0,29.90,ESE,112,0.0,0.0,36,0.00,,,0.00,LWC V1.12 B30,2013-05-08 05:22:00,
2013-05-07 22:27:00,68.0,39.8,29.90,ENE,67,0.0,3.1,36,0.00,,,0.00,LWC V1.12 B30,2013-05-08 05:27:00,
2013-05-07 22:32:00,68.2,40.0,29.91,NE,45,0.0,0.0,36,0.00,,,0.00,LWC V1.12 B30,2013-05-08 05:32:00,
2013-05-07 22:37:00,68.2,40.0,29.91,WNW,292,0.0,0.0,36,0.00,,,0.00,LWC V1.12 B30,2013-05-08 05:37:00,
2013-05-07 22:42:00,68.2,40.0,29.91,North,0,0.0,1.3,36,0.00,,,0.00,LWC V1.12 B30,2013-05-08 05:42:00,
2013-05-07 22:47:00,68.2,40.0,29.91,NNW,337,2.0,2.0,36,0.00,,,0.00,LWC V1.12 B30,2013-05-08 05:47:00,
2013-05-07 22:52:00,68.2,40.0,29.91,ENE,67,0.0,4.5,36,0.00,,,0.00,LWC V1.12 B30,2013-05-08 05:52:00,
2013-05-07 22:57:00,68.2,40.0,29.91,ESE,112,0.0,6.0,36,0.00,,,0.00,LWC V1.12 B30,2013-05-08 05:57:00,
2013-05-07 23:02:00,68.2,40.0,29.91,SE,135,0.0,5.1,36,0.00,,,0.00,LWC V1.12 B30,2013-05-08 06:02:00,
2013-05-07 23:07:00,68.2,40.0,29.91,SE,135,2.0,5.1,36,0.00,,,0.00,LWC V1.12 B30,2013-05-08 06:07:00,
2013-05-07 23:12:00,68.0,39.8,29.92,SSE,157,0.0,1.3,36,0.00,,,0.00,LWC V1.12 B30,2013-05-08 06:12:00,
2013-05-07 23:17:00,67.8,39.7,29.92,SE,135,2.2,2.7,36,0.00,,,0.00,LWC V1.12 B30,2013-05-08 06:17:00,
2013-05-07 23:23:00,67.3,39.2,29.92,SE,135,2.2,4.0,36,0.00,,,0.00,LWC V1.12 B30,2013-05-08 06:23:00,
2013-05-07 23:28:00,66.9,39.6,29.92,ENE,67,0.0,6.0,37,0.00,,,0.00,LWC V1.12 B30,2013-05-08 06:28:00,
2013-05-07 23:33:00,66.7,39.5,29.92,ENE,67,0.0,2.5,37,0.00,,,0.00,LWC V1.12 B30,2013-05-08 06:33:00,
2013-05-07 23:38:00,66.6,39.3,29.92,SE,135,0.0,1.3,37,0.00,,,0.00,LWC V1.12 B30,2013-05-08 06:38:00,
2013-05-07 23:43:00,66.4,39.2,29.93,ESE,112,0.9,0.9,37,0.00,,,0.00,LWC V1.12 B30,2013-05-08 06:43:00,
2013-05-07 23:48:00,66.0,38.9,29.93,SE,135,3.6,3.6,37,0.00,,,0.00,LWC V1.12 B30,2013-05-08 06:48:00,
2013-05-07 23:53:00,66.0,38.9,29.93,SSE,157,2.2,3.4,37,0.00,,,0.00,LWC V1.12 B30,2013-05-08 06:53:00,
2013-05-07 23:58:00,65.8,38.7,29.93,SE,135,2.0,4.7,37,0.00,,,0.00,LWC V1.12 B30,2013-05-08 06:58:00,